Time,TemperatureF,DewpointF,PressureIn,WindDirection,WindDirectionDegrees,WindSpeedMPH,WindSpeedGustMPH,Humidity,HourlyPrecipIn,Conditions,Clouds,dailyrainin,SolarRadiationWatts/m^2,SoftwareType,DateUTC
2013-03-18 00:00:00,54.9,21.5,29.88,SW,228,2.0,4.0,27,0.00,,,0.00,0,Wunderground v.1.15,2013-03-18 07:00:00,
2013-03-18 00:09:00,55.3,21.8,29.88,SW,215,4.0,4.0,27,0.00,,,0.00,0,Wunderground v.1.15,2013-03-18 07:09:00,
2013-03-18 00:19:00,56.4,22.8,29.88,SW,220,3.0,5.0,27,0.00,,,0.00,0,Wunderground v.1.15,2013-03-18 07:19:00,
2013-03-18 00:30:00,56.7,24.8,29.89,SSW,212,4.0,4.0,29,0.00,,,0.00,0,Wunderground v.1.15,2013-03-18 07:30:00,
2013-03-18 00:39:00,56.1,26.6,29.89,WSW,238,0.0,4.0,32,0.00,,,0.00,0,Wunderground v.1.15,2013-03-18 07:39:00,
2013-03-18 00:50:00,56.0,28.7,29.89,SW,221,3.0,3.0,35,0.00,,,0.00,0,Wunderground v.1.15,2013-03-18 07:50:00,
2013-03-18 01:00:00,56.6,29.2,29.89,SSW,207,6.0,6.0,35,0.00,,,0.00,0,Wunderground v.1.15,2013-03-18 08:00:00,
2013-03-18 01:09:00,56.6,29.9,29.89,SSW,209,6.0,6.0,36,0.00,,,0.00,0,Wunderground v.1.15,2013-03-18 08:09:00,
2013-03-18 01:20:00,56.1,29.5,29.89,SSW,209,3.0,4.0,36,0.00,,,0.00,0,Wunderground v.1.15,2013-03-18 08:20:00,
2013-03-18 01:29:00,55.7,29.1,29.89,SSW,197,1.0,1.0,36,0.00,,,0.00,0,Wunderground v.1.15,2013-03-18 08:29:00,
2013-03-18 01:40:00,55.1,29.3,29.89,SW,234,0.0,4.0,37,0.00,,,0.00,0,Wunderground v.1.15,2013-03-18 08:40:00,
2013-03-18 01:50:00,54.5,30.0,29.88,South,188,2.0,6.0,39,0.00,,,0.00,0,Wunderground v.1.15,2013-03-18 08:50:00,
2013-03-18 01:59:00,54.3,29.8,29.88,SSW,196,4.0,4.0,39,0.00,,,0.00,0,Wunderground v.1.15,2013-03-18 08:59:00,
2013-03-18 02:10:00,54.1,29.7,29.88,SSE,168,2.0,4.0,39,0.00,,,0.00,0,Wunderground v.1.15,2013-03-18 09:10:00,
2013-03-18 02:20:00,54.2,29.1,29.88,SSW,210,3.0,7.0,38,0.00,,,0.00,0,Wunderground v.1.15,2013-03-18 09:20:00,
2013-03-18 02:30:00,54.7,29.6,29.88,South,172,7.0,7.0,38,0.00,,,0.00,0,Wunderground v.1.15,2013-03-18 09:30:00,
2013-03-18 02:39:00,54.7,29.6,29.88,SSW,195,6.0,6.0,38,0.00,,,0.00,0,Wunderground v.1.15,2013-03-18 09:39:00,
2013-03-18 02:49:00,54.2,29.8,29.88,South,181,2.0,4.0,39,0.00,,,0.00,0,Wunderground v.1.15,2013-03-18 09:49:00,
2013-03-18 03:00:00,54.0,30.2,29.88,SW,219,3.0,4.0,40,0.00,,,0.00,0,Wunderground v.1.15,2013-03-18 10:00:00,
2013-03-18 03:10:00,53.8,30.0,29.88,WSW,241,4.0,4.0,40,0.00,,,0.00,0,Wunderground v.1.15,2013-03-18 10:10:00,
2013-03-18 03:19:00,53.0,30.5,29.88,West,266,1.0,1.0,42,0.00,,,0.00,0,Wunderground v.1.15,2013-03-18 10:19:00,
2013-03-18 03:29:00,52.1,30.3,29.87,West,279,1.0,1.0,43,0.00,,,0.00,0,Wunderground v.1.15,2013-03-18 10:29:00,
2013-03-18 03:40:00,51.5,30.3,29.87,West,277,0.0,4.0,44,0.00,,,0.00,0,Wunderground v.1.15,2013-03-18 10:40:00,
2013-03-18 03:50:00,50.8,30.7,29.87,West,277,0.0,4.0,46,0.00,,,0.00,0,Wunderground v.1.15,2013-03-18 10:50:00,
2013-03-18 03:59:00,50.0,30.5,29.87,West,277,0.0,4.0,47,0.00,,,0.00,0,Wunderground v.1.15,2013-03-18 10:59:00,
2013-03-18 04:09:00,49.4,30.5,29.87,West,277,0.0,4.0,48,0.00,,,0.00,0,Wunderground v.1.15,2013-03-18 11:09:00,
2013-03-18 04:20:00,49.4,31.0,29.87,SSW,192,0.0,4.0,49,0.00,,,0.00,0,Wunderground v.1.15,2013-03-18 11:20:00,
2013-03-18 04:30:00,49.6,31.2,29.87,SW,236,0.0,4.0,49,0.00,,,0.00,0,Wunderground v.1.15,2013-03-18 11:30:00,
2013-03-18 04:40:00,49.5,31.1,29.88,West,279,0.0,4.0,49,0.00,,,0.00,0,Wunderground v.1.15,2013-03-18 11:40:00,
2013-03-18 04:50:00,49.2,30.8,29.88,West,279,0.0,4.0,49,0.00,,,0.00,0,Wunderground v.1.15,2013-03-18 11:50:00,
2013-03-18 05:00:00,49.0,31.2,29.88,SW,216,0.0,4.0,50,0.00,,,0.00,0,Wunderground v.1.15,2013-03-18 12:00:00,
2013-03-18 05:10:00,48.7,31.4,29.88,West,269,0.0,4.0,51,0.00,,,0.00,0,Wunderground v.1.15,2013-03-18 12:10:00,
2013-03-18 05:19:00,48.6,31.3,29.88,West,264,0.0,4.0,51,0.00,,,0.00,0,Wunderground v.1.15,2013-03-18 12:19:00,
2013-03-18 05:29:00,48.3,31.5,29.88,SSW,195,0.0,4.0,52,0.00,,,0.00,0,Wunderground v.1.15,2013-03-18 12:29:00,
2013-03-18 05:39:00,49.3,31.9,29.88,SW,228,2.0,2.0,51,0.00,,,0.00,0,Wunderground v.1.15,2013-03-18 12:39:00,
2013-03-18 05:50:00,49.2,31.8,29.89,WSW,252,0.0,4.0,51,0.00,,,0.00,0,Wunderground v.1.15,2013-03-18 12:50:00,
2013-03-18 06:00:00,48.9,31.5,29.89,SSW,198,0.0,4.0,51,0.00,,,0.00,0,Wunderground v.1.15,2013-03-18 13:00:00,
2013-03-18 06:09:00,48.5,31.7,29.90,SSW,198,0.0,0.0,52,0.00,,,0.00,0,Wunderground v.1.15,2013-03-18 13:09:00,
2013-03-18 06:20:00,47.9,31.1,29.90,SSW,198,0.0,0.0,52,0.00,,,0.00,0,Wunderground v.1.15,2013-03-18 13:20:00,
2013-03-18 06:29:00,46.7,30.9,29.91,SSW,209,0.0,0.0,54,0.00,,,0.00,7,Wunderground v.1.15,2013-03-18 13:29:00,
2013-03-18 06:40:00,45.9,31.5,29.92,NW,319,0.0,0.0,57,0.00,,,0.00,14,Wunderground v.1.15,2013-03-18 13:40:00,
2013-03-18 06:50:00,46.4,32.0,29.92,SSW,207,0.0,2.0,57,0.00,,,0.00,30,Wunderground v.1.15,2013-03-18 13:50:00,
2013-03-18 06:59:00,47.6,32.2,29.93,SW,215,1.0,1.0,55,0.00,,,0.00,54,Wunderground v.1.15,2013-03-18 13:59:00,
2013-03-18 07:10:00,48.7,31.8,29.93,ESE,120,0.0,6.0,52,0.00,,,0.00,91,Wunderground v.1.15,2013-03-18 14:10:00,
2013-03-18 07:19:00,50.4,32.9,29.93,SE,127,1.0,1.0,51,0.00,,,0.00,135,Wunderground v.1.15,2013-03-18 14:19:00,
2013-03-18 07:30:00,52.1,33.5,29.93,SSE,163,0.0,6.0,49,0.00,,,0.00,181,Wunderground v.1.15,2013-03-18 14:30:00,
2013-03-18 07:40:00,53.9,34.1,29.93,South,177,3.0,3.0,47,0.00,,,0.00,223,Wunderground v.1.15,2013-03-18 14:40:00,
2013-03-18 07:49:00,55.5,33.9,29.93,South,170,2.0,6.0,44,0.00,,,0.00,260,Wunderground v.1.15,2013-03-18 14:49:00,
2013-03-18 07:59:00,57.0,33.5,29.93,SSW,211,1.0,1.0,41,0.00,,,0.00,299,Wunderground v.1.15,2013-03-18 14:59:00,
2013-03-18 08:10:00,58.7,33.8,29.93,SW,223,3.0,4.0,39,0.00,,,0.00,339,Wunderground v.1.15,2013-03-18 15:10:00,
2013-03-18 08:20:00,60.1,34.4,29.94,South,176,3.0,3.0,38,0.00,,,0.00,380,Wunderground v.1.15,2013-03-18 15:20:00,
2013-03-18 08:29:00,61.3,34.1,29.93,SSW,192,6.0,6.0,36,0.00,,,0.00,418,Wunderground v.1.15,2013-03-18 15:29:00,
2013-03-18 08:40:00,62.0,34.0,29.93,SSW,210,9.0,9.0,35,0.00,,,0.00,411,Wunderground v.1.15,2013-03-18 15:40:00,
2013-03-18 08:49:00,62.4,34.4,29.94,South,177,7.0,7.0,35,0.00,,,0.00,471,Wunderground v.1.15,2013-03-18 15:49:00,
2013-03-18 08:59:00,62.4,34.4,29.94,SSW,207,9.0,9.0,35,0.00,,,0.00,526,Wunderground v.1.15,2013-03-18 15:59:00,
2013-03-18 09:10:00,63.3,34.4,29.94,South,191,7.0,7.0,34,0.00,,,0.00,577,Wunderground v.1.15,2013-03-18 16:10:00,
2013-03-18 09:19:00,64.2,34.5,29.94,SSW,204,7.0,10.0,33,0.00,,,0.00,548,Wunderground v.1.15,2013-03-18 16:19:00,
2013-03-18 09:29:00,64.1,34.4,29.94,SW,230,8.0,9.0,33,0.00,,,0.00,513,Wunderground v.1.15,2013-03-18 16:29:00,
2013-03-18 09:39:00,64.1,34.4,29.94,SSW,202,8.0,8.0,33,0.00,,,0.00,624,Wunderground v.1.15,2013-03-18 16:39:00,
2013-03-18 09:49:00,65.2,34.6,29.94,South,181,5.0,9.0,32,0.00,,,0.00,531,Wunderground v.1.15,2013-03-18 16:49:00,
2013-03-18 10:00:00,65.4,34.0,29.94,SSW,202,6.0,9.0,31,0.00,,,0.00,656,Wunderground v.1.15,2013-03-18 17:00:00,
2013-03-18 10:09:00,66.5,34.9,29.94,SSE,163,5.0,5.0,31,0.00,,,0.00,763,Wunderground v.1.15,2013-03-18 17:09:00,
2013-03-18 10:19:00,67.3,33.9,29.94,South,187,5.0,5.0,29,0.00,,,0.00,633,Wunderground v.1.15,2013-03-18 17:19:00,
2013-03-18 10:29:00,67.8,33.5,29.94,South,189,4.0,11.0,28,0.00,,,0.00,782,Wunderground v.1.15,2013-03-18 17:29:00,
2013-03-18 10:39:00,68.8,33.4,29.93,WSW,248,3.0,3.0,27,0.00,,,0.00,798,Wunderground v.1.15,2013-03-18 17:39:00,
2013-03-18 10:49:00,69.4,31.0,29.92,SE,144,4.0,9.0,24,0.00,,,0.00,821,Wunderground v.1.15,2013-03-18 17:49:00,
2013-03-18 10:59:00,70.1,29.5,29.92,SSW,201,3.0,3.0,22,0.00,,,0.00,831,Wunderground v.1.15,2013-03-18 17:59:00,
2013-03-18 11:09:00,70.4,29.7,29.92,SSW,202,2.0,2.0,22,0.00,,,0.00,846,Wunderground v.1.15,2013-03-18 18:09:00,
2013-03-18 11:20:00,71.2,25.5,29.92,East,83,1.0,1.0,18,0.00,,,0.00,858,Wunderground v.1.15,2013-03-18 18:20:00,
2013-03-18 11:29:00,71.5,27.0,29.92,ESE,121,1.0,1.0,19,0.00,,,0.00,872,Wunderground v.1.15,2013-03-18 18:29:00,
2013-03-18 11:39:00,72.1,27.5,29.92,South,169,3.0,3.0,19,0.00,,,0.00,881,Wunderground v.1.15,2013-03-18 18:39:00,
2013-03-18 11:50:00,72.3,26.4,29.92,West,259,5.0,7.0,18,0.00,,,0.00,891,Wunderground v.1.15,2013-03-18 18:50:00,
2013-03-18 12:00:00,72.7,26.7,29.92,SSW,206,4.0,7.0,18,0.00,,,0.00,895,Wunderground v.1.15,2013-03-18 19:00:00,
2013-03-18 12:10:00,73.5,27.4,29.91,SSW,194,3.0,13.0,18,0.00,,,0.00,898,Wunderground v.1.15,2013-03-18 19:10:00,
2013-03-18 12:20:00,74.6,25.4,29.90,South,182,3.0,13.0,16,0.00,,,0.00,900,Wunderground v.1.15,2013-03-18 19:20:00,
2013-03-18 12:30:00,73.6,24.6,29.90,West,279,4.0,4.0,16,0.00,,,0.00,904,Wunderground v.1.15,2013-03-18 19:30:00,
2013-03-18 12:40:00,73.7,24.7,29.90,NNW,342,2.0,2.0,16,0.00,,,0.00,904,Wunderground v.1.15,2013-03-18 19:40:00,
2013-03-18 12:50:00,73.4,24.4,29.90,NNW,348,1.0,1.0,16,0.00,,,0.00,896,Wunderground v.1.15,2013-03-18 19:50:00,
2013-03-18 13:00:00,73.5,24.5,29.89,NNE,28,3.0,13.0,16,0.00,,,0.00,898,Wunderground v.1.15,2013-03-18 20:00:00,
2013-03-18 13:10:00,73.5,24.5,29.89,NNE,13,5.0,5.0,16,0.00,,,0.00,884,Wunderground v.1.15,2013-03-18 20:10:00,
2013-03-18 13:20:00,73.6,23.1,29.88,NNE,28,0.0,13.0,15,0.00,,,0.00,879,Wunderground v.1.15,2013-03-18 20:20:00,
2013-03-18 13:30:00,74.4,23.7,29.88,West,265,1.0,1.0,15,0.00,,,0.00,872,Wunderground v.1.15,2013-03-18 20:30:00,
2013-03-18 13:40:00,74.7,22.3,29.87,NNW,328,1.0,13.0,14,0.00,,,0.00,858,Wunderground v.1.15,2013-03-18 20:40:00,
2013-03-18 13:50:00,74.1,21.8,29.87,WNW,285,3.0,3.0,14,0.00,,,0.00,840,Wunderground v.1.15,2013-03-18 20:50:00,
2013-03-18 14:00:00,75.1,20.9,29.87,West,267,1.0,13.0,13,0.00,,,0.00,828,Wunderground v.1.15,2013-03-18 21:00:00,
2013-03-18 14:10:00,75.1,20.9,29.86,SSW,198,1.0,13.0,13,0.00,,,0.00,809,Wunderground v.1.15,2013-03-18 21:10:00,
2013-03-18 14:20:00,75.8,21.4,29.85,WNW,297,1.0,1.0,13,0.00,,,0.00,791,Wunderground v.1.15,2013-03-18 21:20:00,
2013-03-18 14:30:00,77.3,20.7,29.85,SSW,205,1.0,13.0,12,0.00,,,0.00,770,Wunderground v.1.15,2013-03-18 21:30:00,
2013-03-18 14:40:00,77.8,19.0,29.84,NNW,328,0.0,13.0,11,0.00,,,0.00,747,Wunderground v.1.15,2013-03-18 21:40:00,
2013-03-18 14:50:00,76.8,16.1,29.84,WNW,286,1.0,13.0,10,0.00,,,0.00,726,Wunderground v.1.15,2013-03-18 21:50:00,
2013-03-18 15:00:00,77.1,16.3,29.84,WSW,246,8.0,17.0,10,0.00,,,0.00,700,Wunderground v.1.15,2013-03-18 22:00:00,
2013-03-18 15:10:00,77.3,16.4,29.84,SW,219,6.0,6.0,10,0.00,,,0.00,675,Wunderground v.1.15,2013-03-18 22:10:00,
2013-03-18 15:20:00,77.9,14.5,29.85,SW,223,7.0,7.0,9,0.00,,,0.00,645,Wunderground v.1.15,2013-03-18 22:20:00,
2013-03-18 15:30:00,77.5,16.6,29.85,WSW,240,7.0,17.0,10,0.00,,,0.00,613,Wunderground v.1.15,2013-03-18 22:30:00,
2013-03-18 15:40:00,77.2,16.4,29.85,West,260,7.0,7.0,10,0.00,,,0.00,582,Wunderground v.1.15,2013-03-18 22:40:00,
2013-03-18 15:50:00,76.7,18.2,29.84,WNW,284,4.0,4.0,11,0.00,,,0.00,552,Wunderground v.1.15,2013-03-18 22:50:00,
2013-03-18 16:00:00,76.6,20.1,29.84,SW,229,4.0,4.0,12,0.00,,,0.00,515,Wunderground v.1.15,2013-03-18 23:00:00,
2013-03-18 16:10:00,76.7,20.2,29.84,SW,223,8.0,8.0,12,0.00,,,0.00,478,Wunderground v.1.15,2013-03-18 23:10:00,
2013-03-18 16:20:00,76.6,20.1,29.84,SW,232,7.0,7.0,12,0.00,,,0.00,438,Wunderground v.1.15,2013-03-18 23:20:00,
2013-03-18 16:30:00,76.6,20.1,29.83,SSW,197,6.0,6.0,12,0.00,,,0.00,406,Wunderground v.1.15,2013-03-18 23:30:00,
2013-03-18 16:40:00,76.2,19.8,29.84,WSW,242,5.0,5.0,12,0.00,,,0.00,362,Wunderground v.1.15,2013-03-18 23:40:00,
2013-03-18 16:50:00,76.1,19.8,29.84,SW,217,5.0,20.0,12,0.00,,,0.00,323,Wunderground v.1.15,2013-03-18 23:50:00,
2013-03-18 17:00:00,75.9,19.6,29.85,SW,234,5.0,5.0,12,0.00,,,0.00,290,Wunderground v.1.15,2013-03-19 00:00:00,
2013-03-18 17:10:00,75.8,19.5,29.85,SW,234,4.0,6.0,12,0.00,,,0.00,239,Wunderground v.1.15,2013-03-19 00:10:00,
2013-03-18 17:20:00,75.2,19.1,29.85,WSW,257,7.0,7.0,12,0.00,,,0.00,202,Wunderground v.1.15,2013-03-19 00:20:00,
2013-03-18 17:30:00,74.7,18.7,29.85,WSW,248,4.0,4.0,12,0.00,,,0.00,149,Wunderground v.1.15,2013-03-19 00:30:00,
2013-03-18 17:40:00,73.9,19.9,29.86,SW,215,7.0,11.0,13,0.00,,,0.00,116,Wunderground v.1.15,2013-03-19 00:40:00,
2013-03-18 17:50:00,73.3,19.4,29.86,WSW,248,4.0,4.0,13,0.00,,,0.00,51,Wunderground v.1.15,2013-03-19 00:50:00,
2013-03-18 18:00:00,72.1,18.5,29.86,West,263,4.0,9.0,13,0.00,,,0.00,40,Wunderground v.1.15,2013-03-19 01:00:00,
2013-03-18 18:10:00,71.5,18.0,29.87,West,264,2.0,2.0,13,0.00,,,0.00,35,Wunderground v.1.15,2013-03-19 01:10:00,
2013-03-18 18:20:00,70.7,19.1,29.87,WSW,246,1.0,1.0,14,0.00,,,0.00,19,Wunderground v.1.15,2013-03-19 01:20:00,
2013-03-18 18:30:00,69.8,18.4,29.87,WSW,251,0.0,14.0,14,0.00,,,0.00,0,Wunderground v.1.15,2013-03-19 01:30:00,
2013-03-18 18:40:00,68.0,18.6,29.88,West,267,0.0,14.0,15,0.00,,,0.00,0,Wunderground v.1.15,2013-03-19 01:40:00,
2013-03-18 18:50:00,67.0,19.3,29.88,West,269,1.0,14.0,16,0.00,,,0.00,0,Wunderground v.1.15,2013-03-19 01:50:00,
2013-03-18 19:00:00,65.8,18.3,29.89,West,267,0.0,14.0,16,0.00,,,0.00,0,Wunderground v.1.15,2013-03-19 02:00:00,
2013-03-18 19:10:00,64.9,19.0,29.90,West,263,0.0,0.0,17,0.00,,,0.00,0,Wunderground v.1.15,2013-03-19 02:10:00,
2013-03-18 19:20:00,64.1,19.7,29.90,West,275,0.0,0.0,18,0.00,,,0.00,0,Wunderground v.1.15,2013-03-19 02:20:00,
2013-03-18 19:30:00,63.7,19.3,29.89,West,275,0.0,0.0,18,0.00,,,0.00,0,Wunderground v.1.15,2013-03-19 02:30:00,
2013-03-18 19:40:00,62.8,19.9,29.90,West,275,0.0,0.0,19,0.00,,,0.00,0,Wunderground v.1.15,2013-03-19 02:40:00,
2013-03-18 19:50:00,62.2,20.6,29.90,SW,226,0.0,0.0,20,0.00,,,0.00,0,Wunderground v.1.15,2013-03-19 02:50:00,
2013-03-18 20:00:00,61.4,21.1,29.90,SW,227,0.0,0.0,21,0.00,,,0.00,0,Wunderground v.1.15,2013-03-19 03:00:00,
2013-03-18 20:10:00,60.6,21.5,29.90,WSW,237,0.0,4.0,22,0.00,,,0.00,0,Wunderground v.1.15,2013-03-19 03:10:00,
2013-03-18 20:20:00,60.3,21.2,29.90,SW,236,0.0,4.0,22,0.00,,,0.00,0,Wunderground v.1.15,2013-03-19 03:20:00,
2013-03-18 20:30:00,60.2,21.2,29.90,WSW,243,0.0,4.0,22,0.00,,,0.00,0,Wunderground v.1.15,2013-03-19 03:30:00,
2013-03-18 20:40:00,60.0,22.0,29.91,WSW,243,0.0,4.0,23,0.00,,,0.00,0,Wunderground v.1.15,2013-03-19 03:40:00,
2013-03-18 20:50:00,59.4,21.5,29.91,WSW,243,0.0,4.0,23,0.00,,,0.00,0,Wunderground v.1.15,2013-03-19 03:50:00,
2013-03-18 21:00:00,58.5,20.8,29.91,SSE,159,1.0,1.0,23,0.00,,,0.00,0,Wunderground v.1.15,2013-03-19 04:00:00,
2013-03-18 21:10:00,58.3,21.6,29.92,NW,304,0.0,0.0,24,0.00,,,0.00,0,Wunderground v.1.15,2013-03-19 04:10:00,
2013-03-18 21:20:00,57.6,21.0,29.92,NW,304,0.0,0.0,24,0.00,,,0.00,0,Wunderground v.1.15,2013-03-19 04:20:00,
2013-03-18 21:30:00,56.7,22.2,29.92,NW,304,0.0,0.0,26,0.00,,,0.00,0,Wunderground v.1.15,2013-03-19 04:30:00,
2013-03-18 21:40:00,55.6,22.1,29.93,NW,304,0.0,0.0,27,0.00,,,0.00,0,Wunderground v.1.15,2013-03-19 04:40:00,
2013-03-18 21:50:00,55.3,21.8,29.93,NW,304,0.0,0.0,27,0.00,,,0.00,0,Wunderground v.1.15,2013-03-19 04:50:00,
2013-03-18 22:00:00,55.0,21.6,29.93,NW,304,0.0,0.0,27,0.00,,,0.00,0,Wunderground v.1.15,2013-03-19 05:00:00,
2013-03-18 22:10:00,54.7,22.2,29.93,SSE,148,0.0,4.0,28,0.00,,,0.00,0,Wunderground v.1.15,2013-03-19 05:10:00,
2013-03-18 22:20:00,54.5,22.0,29.93,SW,214,2.0,2.0,28,0.00,,,0.00,0,Wunderground v.1.15,2013-03-19 05:20:00,
2013-03-18 22:30:00,54.9,23.2,29.94,SSW,211,0.0,4.0,29,0.00,,,0.00,0,Wunderground v.1.15,2013-03-19 05:30:00,
2013-03-18 22:40:00,55.3,22.7,29.94,South,189,2.0,4.0,28,0.00,,,0.00,0,Wunderground v.1.15,2013-03-19 05:40:00,
2013-03-18 22:50:00,56.2,22.6,29.94,SSW,195,4.0,5.0,27,0.00,,,0.00,0,Wunderground v.1.15,2013-03-19 05:50:00,
2013-03-18 23:00:00,56.9,22.3,29.93,SSW,197,5.0,5.0,26,0.00,,,0.00,0,Wunderground v.1.15,2013-03-19 06:00:00,
2013-03-18 23:10:00,57.0,21.5,29.93,South,183,4.0,4.0,25,0.00,,,0.00,0,Wunderground v.1.15,2013-03-19 06:10:00,
2013-03-18 23:20:00,56.9,22.3,29.94,SW,215,5.0,6.0,26,0.00,,,0.00,0,Wunderground v.1.15,2013-03-19 06:20:00,
2013-03-18 23:30:00,57.1,22.5,29.93,SSW,201,3.0,4.0,26,0.00,,,0.00,0,Wunderground v.1.15,2013-03-19 06:30:00,
2013-03-18 23:40:00,57.1,22.5,29.93,SSW,196,3.0,3.0,26,0.00,,,0.00,0,Wunderground v.1.15,2013-03-19 06:40:00,
2013-03-18 23:50:00,57.1,22.5,29.93,SSW,207,3.0,3.0,26,0.00,,,0.00,0,Wunderground v.1.15,2013-03-19 06:50:00,